This is the latest recevied weather packets stored in our database for station/object VK6WB. If no packets are shown the sender has not sent any weather packets the latest 10 day(s).
| Time | Temp. | Humidity | Pressure | Rain* | Wind** | Luminosity | Snow |
|---|---|---|---|---|---|---|---|
| 1777442404 | 23.33° C | 10% | 1007.1 hPa | 0 mm | - | 325 W/m² | - |
| 1777441804 | 23.33° C | 10% | 1007.2 hPa | 0 mm | - | 325 W/m² | - |
| 1777441205 | 24.44° C | 10% | 1007.1 hPa | 0 mm | - | 325 W/m² | - |
| 1777440604 | 23.33° C | 10% | 1007.2 hPa | 0 mm | - | 325 W/m² | - |
| 1777440004 | 22.78° C | 10% | 1007.5 hPa | 0 mm | - | 325 W/m² | - |
| 1777439405 | 23.33° C | 10% | 1007.5 hPa | 0 mm | - | 325 W/m² | - |
| 1777438804 | 23.33° C | 10% | 1007.6 hPa | 0 mm | - | 325 W/m² | - |
| 1777438204 | 23.33° C | 10% | 1007.7 hPa | 0 mm | - | 325 W/m² | - |
| 1777437605 | 22.78° C | 10% | 1007.8 hPa | 0 mm | - | 325 W/m² | - |
| 1777437004 | 23.33° C | 10% | 1007.8 hPa | 0 mm | - | 325 W/m² | - |
| 1777436404 | 22.78° C | 10% | 1008 hPa | 0 mm | - | 325 W/m² | - |
| 1777435805 | 22.78° C | 10% | 1008.1 hPa | 0 mm | - | 325 W/m² | - |
| 1777435204 | 15° C | 10% | 1008.2 hPa | 0 mm | - | 325 W/m² | - |
| 1777434604 | 25° C | 10% | 1008.2 hPa | 0 mm | - | 325 W/m² | - |
| 1777434004 | 25.56° C | 10% | 1008.7 hPa | 0 mm | - | 325 W/m² | - |
| 1777433404 | 24.44° C | 10% | 1008.6 hPa | 0 mm | - | 325 W/m² | - |
| 1777432804 | 18.33° C | 10% | 1008.7 hPa | 0 mm | - | 325 W/m² | - |
| 1777432204 | 18.33° C | 10% | 1008.7 hPa | 0 mm | - | 325 W/m² | - |
| 1777431604 | 18.33° C | 10% | 1008.7 hPa | 0 mm | - | 325 W/m² | - |
| 1777431004 | 18.33° C | 10% | 1008.8 hPa | 0 mm | - | 325 W/m² | - |
| 1777430404 | 18.33° C | 10% | 1008.6 hPa | 0 mm | - | 325 W/m² | - |
| 1777429804 | 18.33° C | 10% | 1008.9 hPa | 0 mm | - | 325 W/m² | - |
| 1777429204 | 18.33° C | 10% | 1008.7 hPa | 0 mm | - | 325 W/m² | - |
| 1777428604 | 18.33° C | 10% | 1008.9 hPa | 0 mm | - | 325 W/m² | - |
| 1777428005 | 18.33° C | 10% | 1008.9 hPa | 0 mm | - | 325 W/m² | - |
* Rain latest hour (hover to see other rain measurements)
** Current wind speed in m/s (hover to see current wind gust speed)